TimeMDT,TemperatureF,Dew PointF,Humidity,Sea Level PressureIn,VisibilityMPH,Wind Direction,Wind SpeedMPH,Gust SpeedMPH,PrecipitationIn,Events,Conditions,WindDirDegrees,DateUTC
12:53 AM,50.0,19.0,29,29.79,10.0,SW,8.1,-,N/A,,Mostly Cloudy,220,2012-10-20 06:53:00
1:53 AM,54.0,17.1,23,29.77,10.0,SSW,9.2,-,N/A,,Mostly Cloudy,210,2012-10-20 07:53:00
2:53 AM,52.0,18.0,26,29.76,10.0,SW,10.4,-,N/A,,Mostly Cloudy,230,2012-10-20 08:53:00
3:53 AM,54.0,16.0,22,29.74,10.0,SW,5.8,-,N/A,,Mostly Cloudy,220,2012-10-20 09:53:00
4:53 AM,55.9,16.0,21,29.73,10.0,SW,9.2,-,N/A,,Mostly Cloudy,230,2012-10-20 10:53:00
5:53 AM,57.9,16.0,19,29.73,10.0,SW,13.8,-,N/A,,Mostly Cloudy,230,2012-10-20 11:53:00
6:53 AM,59.0,15.1,18,29.74,10.0,WSW,20.7,-,N/A,,Mostly Cloudy,240,2012-10-20 12:53:00
7:53 AM,57.9,15.1,19,29.77,10.0,WSW,16.1,-,N/A,,Mostly Cloudy,240,2012-10-20 13:53:00
8:53 AM,59.0,15.1,18,29.78,10.0,WSW,19.6,25.3,N/A,,Mostly Cloudy,250,2012-10-20 14:53:00
9:53 AM,61.0,17.1,18,29.78,10.0,WSW,16.1,-,N/A,,Mostly Cloudy,240,2012-10-20 15:53:00
10:53 AM,64.0,17.1,16,29.78,10.0,WSW,12.7,-,N/A,,Mostly Cloudy,240,2012-10-20 16:53:00
11:53 AM,68.0,18.0,15,29.73,10.0,WSW,9.2,-,N/A,,Mostly Cloudy,240,2012-10-20 17:53:00
12:53 PM,70.0,17.1,13,29.68,10.0,WSW,11.5,-,N/A,,Mostly Cloudy,240,2012-10-20 18:53:00
1:53 PM,73.9,15.1,11,29.61,10.0,SW,11.5,-,N/A,,Mostly Cloudy,220,2012-10-20 19:53:00
2:53 PM,75.0,14.0,10,29.58,10.0,South,13.8,-,N/A,,Mostly Cloudy,190,2012-10-20 20:53:00
3:53 PM,77.0,14.0,9,29.55,10.0,SSW,9.2,-,N/A,,Mostly Cloudy,210,2012-10-20 21:53:00
4:53 PM,73.9,16.0,11,29.55,10.0,SSE,8.1,-,N/A,,Mostly Cloudy,150,2012-10-20 22:53:00
5:53 PM,66.0,19.9,17,29.57,10.0,NE,6.9,-,N/A,,Mostly Cloudy,50,2012-10-20 23:53:00
6:53 PM,61.0,21.9,22,29.58,10.0,Calm,Calm,-,N/A,,Mostly Cloudy,0,2012-10-21 00:53:00
7:53 PM,55.0,25.0,31,29.62,10.0,West,11.5,-,N/A,,Scattered Clouds,260,2012-10-21 01:53:00
8:53 PM,54.0,26.1,34,29.65,10.0,WSW,6.9,-,N/A,,Scattered Clouds,250,2012-10-21 02:53:00
9:53 PM,55.0,23.0,29,29.64,10.0,West,6.9,-,N/A,,Scattered Clouds,270,2012-10-21 03:53:00
10:53 PM,52.0,21.0,30,29.66,10.0,East,9.2,-,N/A,,Scattered Clouds,100,2012-10-21 04:53:00
11:53 PM,54.0,18.0,24,29.64,10.0,SSE,6.9,-,N/A,,Scattered Clouds,160,2012-10-21 05:53:00